CAPE
1347 1218 1112 1159 1418 601 0 47 99 34 25 60 108 21 203 421 166 34 191 230 384 727 1301 1401 2085 2167 2310 2440 2222 1990 2163 2640 2727 2787 3078 3189 3121 3151 3300 3233 3188 3037 2892 2244 2254 2334 2339 2210 2152
646 563 1126 1277 480 0 2 13 17 120 130 131 36 359 495 295 298 375 404 315 358 620 1206 1570 2113 2240 2175 2338 2239 2651 2516 2617 2802 2896 2942 3096 3151 3130 2940 2309 2343 2849 2562 2149 2192 2156 2047 2024 1890
769 610 1449 1262 1 0 0 5 24 183 166 328 350 376 360 358 451 424 358 394 454 597 1481 1795 2726 2572 2488 2438 2593 3038 2774 2994 2860 2940 3055 2905 2766 2356 2024 2169 2160 2217 2506 2147 2077 2060 2008 1955 1763
21 497 1134 137 0 0 0 1 22 159 131 317 773 767 693 550 567 551 1151 1175 906 1005 1550 2676 3033 3014 2964 3051 3115 3254 3124 2938 2919 2834 2624 2562 2511 2111 2006 2048 2105 2177 2172 2140 2074 1978 1935 1870 1756
874 508 228 0 0 0 0 0 0 108 153 860 914 817 807 789 692 888 1106 1113 1047 1206 1659 2150 2913 2941 2893 3132 3160 3108 2978 2878 2930 2703 2501 2692 2796 2173 2208 2069 1987 1905 1903 1850 1776 1728 1671 1728 1717
1 49 122 0 0 0 0 0 51 298 315 846 1199 1071 1037 891 743 835 1058 1114 1042 1216 1913 2246 3031 3181 3241 2814 2559 3158 2821 2638 2747 2723 2992 2801 2823 2577 2398 1924 1874 1768 1605 1617 1735 1832 1724 1704 1815
7 192 42 19 0 0 0 0 0 122 317 416 1328 1136 908 1102 1083 1061 1028 1056 1058 1146 1496 2077 2285 2345 2823 3066 2926 2704 2887 2671 2879 2864 2790 2759 2308 2044 2009 1958 1921 1639 1609 1743 1871 2380 2369 2398 2569
231 80 24 140 41 0 0 0 20 221 287 431 476 638 583 1035 1197 1340 1133 1058 1043 1176 1417 1429 1809 2077 2411 2513 2873 2364 2759 2395 2784 2652 2310 2580 2154 1838 1616 1262 1836 2045 1939 1891 2177 2679 2643 3020 2944
303 247 60 40 20 10 44 0 55 210 309 415 348 490 424 1246 1282 1172 1230 1314 1224 1402 1303 1275 1175 1533 1784 2213 2473 3038 2639 2851 2681 2365 2488 2361 1565 173 170 933 800 1527 2305 2220 2455 2488 2262 2934 2359
544 445 17 44 17 38 278 425 413 271 343 345 390 303 652 767 971 1176 1430 1241 1160 1233 1424 1350 1383 1492 1528 1673 2050 2081 2043 2021 1813 1763 1678 1513 1163 778 942 713 619 1121 2522 2808 2922 2413 2567 2652 1666
487 184 81 69 7 226 361 320 285 647 186 310 375 257 344 793 967 1198 1369 1293 1196 1133 1069 966 1325 1380 1617 1440 1521 1780 1679 1558 1600 1593 1561 1478 1434 881 1357 554 1204 1429 1945 1761 1955 2224 1869 1870 1542
5 97 122 35 179 295 61 40 0 60 157 450 355 304 353 336 672 682 592 769 1127 1036 1098 1382 1758 1711 1453 1531 1625 1653 1521 1411 1339 1538 1773 1748 1470 1288 1427 1171 1273 1422 1355 1663 1177 940 1613 1424 1139
6 2 24 13 4 195 181 2 0 12 20 418 354 391 397 325 270 464 426 723 538 1050 1431 1470 1559 1999 1398 1236 1809 1342 1483 1671 1306 1676 1762 1817 1608 1488 1243 1458 963 1437 1417 1049 1443 1473 1215 1403 1488
1 1 24 3 67 297 453 14 69 25 63 293 298 348 339 341 312 307 459 686 581 760 1453 1660 1620 2095 1917 2119 2036 2178 1837 972 1389 1685 1688 1866 1875 1697 1597 1207 1278 1603 1193 1583 1312 1301 1269 1165 1283
3 0 0 0 0 192 277 439 609 351 174 234 311 327 357 350 373 385 451 569 582 645 1639 1822 1942 2112 1827 1986 2199 2427 2112 1683 918 1310 1361 967 1022 1555 1479 1135 1308 1158 1192 1535 1570 1642 1592 1433 1361
6 0 0 0 0 107 307 419 583 425 293 258 327 377 436 398 476 402 555 515 651 459 1062 1791 2195 2204 2014 2125 2410 2299 2109 1710 1747 1722 1400 1495 1809 1279 1550 1268 1196 1237 1277 1188 1058 1089 1036 905 887
0 0 2 0 0 0 131 443 503 507 540 606 588 589 654 607 537 444 617 491 565 1171 1164 1072 1543 2185 2155 2372 2379 2248 2249 2060 1944 1626 2078 1923 2144 1802 1482 1546 1644 1659 1379 1128 1099 1233 858 804 779
0 0 1 5 0 0 70 451 405 479 661 692 747 863 948 952 824 756 751 932 1125 1438 1187 1525 1449 2057 2293 1912 2108 2300 1888 1660 1718 1989 1536 1568 1643 1621 1339 1278 1162 1163 1177 1086 1048 889 818 920 870
0 0 4 0 0 0 8 232 357 273 238 274 422 524 608 818 921 1042 1045 1036 1469 1288 1390 1537 1807 2312 1856 1925 1732 1972 1242 1809 1710 1737 1930 1815 1646 1656 1568 1307 1455 1317 1129 1074 1077 1000 988 627 652
0 7 5 33 3 25 12 88 121 92 69 192 296 257 356 334 1232 1215 1137 896 1284 1316 1909 1781 2206 2423 2118 2250 2229 2283 2212 1946 1995 1927 2090 1653 1615 1607 1716 1472 802 585 692 389 193 352 300 473 527
0 0 16 60 71 54 56 77 105 98 44 146 279 179 183 463 950 1259 1366 1196 1430 1868 2006 2158 2450 2342 2477 1982 2656 2327 2002 1804 1029 717 573 222 119 494 425 420 431 604 498 331 357 331 312 314 326
0 0 0 8 64 28 85 61 28 7 0 99 233 168 145 265 169 377 389 611 1910 1972 2303 2692 2398 2278 2507 2489 2223 1682 1196 20 415 307 166 91 416 210 199 250 502 331 346 353 297 376 241 269 198
0 0 0 0 0 3 30 2 46 19 0 45 86 207 113 157 217 445 430 591 1294 1937 2119 2649 2329 2735 2440 441 642 76 0 0 27 8 0 0 1 204 382 491 216 233 160 152 250 77 164 130 136
0 0 0 0 0 0 0 0 37 8 54 38 51 43 68 142 281 392 573 674 1241 1633 2367 2734 2876 1679 950 117 16 0 0 0 0 4 0 19 0 63 440 184 73 191 213 198 64 145 92 19 6
0 0 0 0 0 0 0 0 13 61 50 4 15 8 1 60 238 327 487 648 1251 1668 2251 2815 1668 978 568 118 113 0 0 0 0 0 27 30 0 107 108 51 217 0 24 35 95 39 11 28 0
0 0 0 0 0 0 0 0 3 118 99 65 22 6 22 2 50 125 192 294 1120 1542 2409 2230 1248 1143 602 387 46 0 0 0 6 318 60 0 0 1 60 2 106 93 146 178 125 28 7 24 12
0 0 0 0 0 0 1 2 33 60 58 75 77 9 0 0 32 36 113 245 965 1539 2298 1670 1260 1135 747 458 49 18 28 18 133 28 0 0 141 0 26 27 44 136 243 273 71 43 66 6 0
0 0 0 0 0 0 1 29 17 1 14 43 127 9 15 1 74 130 149 501 1072 1740 1799 1455 1194 1032 879 514 351 349 326 186 92 46 0 13 0 79 51 136 155 155 76 143 209 11 0 0 0
0 0 0 0 0 0 12 9 86 20 0 0 0 12 26 66 94 333 546 755 1219 1669 1621 1312 1196 1062 782 573 476 471 605 322 177 89 5 23 97 303 256 229 154 108 160 212 232 80 85 64 46
0 0 0 0 0 8 19 25 0 0 0 0 0 0 0 45 44 283 308 573 1324 1509 1333 1202 1251 991 438 590 538 408 0 6 133 46 17 11 51 105 161 130 193 175 105 115 109 6 81 91 70
CIN
-497 -434 -412 -241 -91 -81 0 -9 -68 -70 -74 -130 -130 -109 -94 -76 -54 -63 -31 -50 -30 -10 0 -1 0 0 0 0 0 0 0 0 0 0 0 0 0 0 0 0 0 0 0 0 0 0 0 0 -6
-543 -401 -328 -106 -41 0 -20 -27 -22 -46 -69 -74 -72 -87 -89 -66 -107 -26 -9 -39 -51 -31 -9 -1 0 0 0 0 0 0 0 0 0 0 0 0 0 0 0 0 -1 0 0 0 -2 -1 -1 0 -7
-644 -404 -137 -86 -1 0 0 -12 -9 -14 -85 -22 -23 -34 -56 -52 -19 -22 -19 -24 -59 -63 -14 0 0 0 0 0 0 0 0 0 0 0 0 0 0 0 -6 -6 -3 0 0 -5 -9 -7 -9 -11 -13
-497 -399 -136 -42 0 0 0 -6 -26 -26 -32 -19 -36 -36 -27 -47 -45 -28 -10 -27 -43 -39 -15 0 0 0 0 0 0 0 0 0 0 0 0 0 0 -3 -11 -8 -3 0 0 -5 -12 -12 -12 -17 -18
-327 -323 -229 0 -5 0 0 0 0 -42 -40 -13 -69 -8 -12 -51 -63 -31 -21 -22 -50 -32 -7 0 0 0 0 0 0 0 0 0 0 0 0 0 0 -1 0 -1 -3 -7 -9 -14 -20 -19 -20 -20 -23
-26 -329 -206 0 0 0 -3 0 -63 -64 -49 -14 -37 -34 -1 -28 -39 -31 -22 -29 -56 -49 -9 -1 0 0 0 0 0 0 0 0 0 0 0 0 0 0 0 -9 -7 -11 -22 -25 -29 -28 -30 -31 -26
-243 -269 -308 -67 0 0 0 0 0 -83 -80 -46 -24 -51 -12 -22 -22 -15 -23 -39 -60 -59 -47 -10 -1 0 0 0 0 0 0 0 0 0 0 0 -4 -1 -2 -2 -3 -19 -18 -25 -28 -16 -15 -12 -4
-269 -154 -106 -171 -41 0 -1 0 -107 -67 -86 -79 -78 -36 -51 -23 -29 -9 -9 -29 -71 -65 -50 -39 -12 -5 -2 0 0 0 0 0 0 0 0 0 -2 -16 -24 -58 -28 -5 -6 -10 -9 -6 -6 -1 -3
-125 -133 -39 -220 -187 -113 -133 -12 -67 -74 -83 -97 -76 -100 -95 -26 -24 -34 -18 -34 -30 -27 -44 -48 -54 -34 -26 -4 -1 -1 0 0 0 -3 -9 -13 -42 -418 -388 -152 -92 -47 -7 -11 -16 -14 -25 -14 -22
-83 -100 -43 -138 -76 -187 -154 -90 -144 -49 -50 -106 -101 -94 -62 -48 -65 -41 -37 -26 -27 -27 -27 -40 -42 -47 -44 -32 -40 -42 -36 -39 -49 -50 -56 -54 -66 -210 -197 -211 -126 -69 -22 -11 -16 -26 -16 -13 -55
-56 -55 -32 -52 -106 -152 -153 -139 -171 -108 -39 -101 -153 -140 -94 -65 -74 -61 -33 -50 -68 -61 -55 -55 -42 -49 -23 -67 -72 -62 -77 -84 -84 -76 -66 -63 -72 -120 -104 -218 -121 -81 -57 -44 -47 -34 -36 -39 -44
-18 -16 -39 -83 -159 -126 -255 -328 0 -38 -141 -100 -139 -140 -110 -82 -69 -57 -84 -90 -60 -79 -53 -54 -36 -41 -48 -78 -67 -61 -71 -81 -89 -72 -52 -42 -52 -71 -58 -67 -52 -48 -49 -30 -51 -71 -39 -37 -38
-22 -5 -52 -38 -45 -216 -263 -31 0 -57 -121 -97 -130 -129 -113 -110 -93 -103 -122 -92 -99 -66 -55 -67 -54 -53 -65 -75 -46 -48 -52 -52 -74 -62 -55 -37 -49 -45 -42 -45 -61 -47 -64 -65 -51 -49 -54 -54 -43
-17 -1 -43 -20 -83 -89 -123 -147 -134 -232 -178 -108 -122 -125 -123 -119 -113 -106 -128 -108 -94 -74 -59 -80 -64 -49 -46 -41 -42 -41 -54 -46 -51 -63 -49 -45 -53 -78 -65 -64 -55 -56 -70 -53 -60 -50 -52 -62 -49
-12 0 0 0 -8 -103 -115 -94 -68 -119 -140 -98 -91 -101 -98 -109 -111 -117 -141 -131 -112 -64 -51 -62 -61 -67 -49 -52 -38 -34 -49 -55 -77 -59 -70 -69 -84 -66 -81 -75 -63 -64 -60 -37 -38 -39 -43 -41 -34
-12 0 0 0 0 -61 -82 -109 -58 -79 -103 -93 -60 -67 -66 -75 -99 -120 -113 -133 -117 -123 -67 -45 -35 -74 -73 -61 -47 -45 -45 -58 -48 -45 -58 -63 -76 -64 -70 -71 -72 -63 -56 -55 -59 -49 -42 -52 -55
0 0 -38 0 0 0 -56 -97 -96 -64 -59 -43 -45 -39 -39 -51 -93 -111 -89 -128 -127 -85 -80 -50 -61 -52 -70 -43 -35 -30 -35 -46 -49 -51 -43 -43 -58 -67 -59 -48 -49 -40 -53 -65 -67 -46 -61 -34 -44
0 0 -53 -44 0 0 -86 -78 -100 -58 -31 -30 -29 -21 -26 -44 -66 -98 -103 -85 -68 -63 -61 -42 -67 -57 -89 -61 -46 -27 -42 -53 -47 -45 -85 -51 -53 -54 -55 -59 -61 -62 -49 -55 -47 -42 -51 -35 -27
0 0 -61 0 0 0 -54 -59 -50 -40 -49 -38 -49 -74 -81 -62 -101 -93 -78 -89 -59 -73 -80 -62 -55 -73 -67 -62 -45 -35 -65 -42 -54 -63 -46 -41 -43 -33 -33 -40 -36 -42 -29 -25 -27 -18 -19 -29 -37
0 -28 -43 -85 -20 -62 -81 -63 -50 -199 -139 -52 -75 -119 -146 -135 -97 -89 -91 -118 -80 -95 -62 -67 -53 -50 -54 -52 -50 -31 -34 -42 -43 -47 -49 -41 -29 -40 -30 -30 -36 -58 -42 -83 -162 -78 -73 -43 -39
0 0 -42 -45 -57 -62 -67 -71 -203 -271 -185 -85 -107 -96 -110 -145 -129 -113 -89 -100 -93 -56 -68 -74 -51 -53 -58 -69 -35 -30 -45 -44 -53 -104 -145 -247 -278 -126 -145 -138 -105 -59 -69 -102 -92 -77 -49 -34 -46
0 0 0 -2 -54 -36 -76 -102 -244 -264 0 -94 -74 -94 -106 -157 -171 -167 -156 -128 -54 -60 -68 -78 -67 -69 -46 -43 -34 -31 -45 -51 -156 -215 -316 -354 -167 -231 -218 -178 -58 -123 -110 -76 -68 -38 -70 -57 -23
0 0 0 0 0 -17 -62 -31 -167 -340 -9 -85 -53 -67 -81 -170 -188 -169 -164 -125 -79 -51 -66 -70 -78 -59 -48 -195 -152 -340 0 0 -435 -281 0 0 -12 -238 -100 -64 -194 -151 -174 -151 -82 -148 -68 -81 -48
0 0 0 0 0 0 0 0 -223 -168 -191 -98 -121 -31 -64 -128 -200 -181 -167 -133 -88 -70 -75 -58 -48 -102 -162 -319 -283 0 0 0 0 -307 0 -184 0 -289 -161 -285 -353 -225 -164 -116 -174 -104 -106 -60 -21
0 0 0 0 0 0 0 0 -28 -153 -103 -121 -168 -138 -32 -118 -137 -201 -205 -173 -128 -95 -106 -86 -132 -156 -213 -303 -306 0 0 0 0 0 -350 -96 0 -315 -295 -310 -175 -44 -250 -195 -116 -147 -189 -107 0
0 0 0 0 0 0 0 0 -27 -90 -134 -123 -160 -146 -106 -20 -128 -137 -160 -180 -159 -139 -101 -157 -216 -179 -216 -255 -260 0 0 0 -249 -228 -357 0 0 -31 -309 -128 -208 -188 -117 -87 -107 -164 -43 -81 -34
0 0 0 0 0 0 -23 -24 -78 -122 -163 -96 -102 -164 0 0 -107 -91 -154 -199 -183 -157 -160 -245 -274 -252 -248 -251 -384 -409 -388 -376 -277 -302 0 -9 -226 0 -243 -259 -216 -131 -65 -52 -125 -114 -96 -27 0
0 0 0 0 0 0 -6 -49 -51 -12 -101 -63 -136 -146 -238 -33 -99 -89 -157 -187 -205 -176 -227 -292 -288 -288 -279 -299 -273 -260 -266 -290 -304 -333 -10 -292 0 -169 -182 -129 -116 -102 -146 -96 -62 -104 0 0 0
0 0 0 0 0 0 -25 -41 -148 -153 0 0 0 -139 -155 -190 -185 -256 -223 -146 -202 -200 -243 -301 -291 -289 -275 -308 -267 -222 -195 -254 -285 -302 -202 -297 -196 -99 -84 -68 -91 -95 -61 -58 -52 -66 -50 -27 -50
0 0 0 0 0 -52 -68 -47 0 -34 0 0 0 0 0 -167 -297 -254 -192 -220 -190 -246 -259 -304 -287 -285 -323 -283 -279 -241 0 -317 -229 -278 -340 -290 -174 -128 -105 -113 -49 -48 -73 -73 -66 -12 -50 -46 -34
Wind_Speed
9 9 4 2 2 2 10 17 12 16 12 8 19 5 6 4 2 10 8 17 17 13 12 13 16 17 17 17 18 18 17 16 16 16 16 16 14 13 12 12 12 11 10 11 9 9 9 8 8
5 7 5 4 2 9 5 9 12 17 18 19 12 16 21 20 17 17 10 18 18 14 11 12 15 17 18 18 18 17 17 16 16 16 15 14 13 12 12 13 12 11 10 8 8 8 8 6 5
6 9 4 5 3 10 6 8 18 25 26 22 15 18 9 17 14 7 14 16 16 14 12 13 16 17 18 17 18 17 17 16 15 15 14 14 13 12 12 11 11 9 8 8 7 6 6 5 4
2 4 4 2 10 14 13 16 21 23 21 20 18 13 9 14 10 15 20 18 16 14 13 15 16 16 15 16 17 17 16 15 14 14 14 13 12 12 11 9 8 7 6 6 6 5 4 3 2
1 4 4 7 15 13 11 16 19 19 20 24 24 17 12 20 19 17 16 15 16 12 11 11 14 15 15 14 16 16 15 14 13 12 11 11 11 9 8 7 5 5 5 5 3 3 2 3 2
8 4 4 9 9 5 13 21 23 22 19 23 24 20 13 19 18 16 16 15 15 13 11 10 14 14 14 15 16 15 14 14 12 11 10 9 8 7 6 5 4 2 2 2 2 1 1 2 2
11 5 4 6 5 5 4 22 19 18 19 16 20 19 13 18 17 17 16 16 17 14 10 8 8 12 14 14 14 13 13 12 11 10 8 7 6 5 4 3 3 4 4 4 4 4 4 4 5
6 5 5 17 7 5 3 13 24 19 20 19 20 13 18 19 20 15 15 15 16 13 11 9 7 6 6 7 13 13 11 11 10 9 7 6 6 5 2 5 5 7 8 8 7 6 5 5 7
3 3 9 15 3 3 15 16 11 22 22 19 8 17 15 25 22 17 15 14 12 11 11 10 9 8 7 6 8 10 12 10 9 8 7 6 3 3 6 8 10 8 11 11 9 9 8 9 8
6 4 14 16 14 17 13 12 6 7 19 20 19 15 20 22 21 18 15 11 10 11 12 11 11 10 9 8 7 7 8 5 5 6 6 4 4 4 6 9 10 13 13 9 11 10 9 8 3
13 9 21 14 14 14 9 8 6 9 13 22 23 19 15 20 18 18 16 17 12 12 9 8 8 7 8 7 4 3 2 3 5 7 6 5 4 4 5 3 4 4 9 3 6 5 3 5 4
10 19 17 15 21 8 7 7 5 7 4 22 19 16 7 11 15 13 13 10 13 13 11 9 8 9 7 6 4 4 4 4 4 5 7 4 3 4 3 3 3 2 1 1 2 1 2 3 4
9 11 19 23 20 17 18 11 6 6 3 20 19 14 10 8 7 11 11 14 8 10 11 9 7 7 6 5 3 4 6 5 7 5 6 5 4 4 3 2 1 3 1 1 2 3 3 4 5
3 8 19 15 18 19 21 8 8 6 7 19 18 12 11 10 9 7 10 9 7 9 10 10 7 8 7 4 3 1 2 3 4 4 5 6 4 4 3 2 1 3 3 2 1 3 4 4 4
6 8 13 15 20 20 23 14 11 14 15 15 15 14 12 12 11 9 9 10 10 5 14 11 9 7 7 6 3 2 2 3 0 4 6 7 6 6 6 4 2 3 3 3 3 4 4 4 5
6 8 7 10 12 13 14 14 15 15 15 14 15 15 13 10 12 10 10 10 9 8 7 10 9 7 6 4 3 2 2 3 2 2 2 5 6 4 4 3 2 3 3 2 2 3 4 4 3
6 6 15 6 6 6 8 16 20 18 17 17 17 15 13 11 11 9 10 10 9 10 9 8 8 9 8 6 4 4 5 4 2 2 3 2 5 6 4 1 2 2 3 3 3 3 1 3 4
8 6 16 12 10 7 9 10 19 19 18 17 15 15 14 13 14 13 11 12 10 9 8 7 6 7 8 5 4 3 3 3 2 2 0 3 3 4 3 0 3 3 3 4 3 3 3 3 4
11 10 11 7 9 8 8 15 16 16 14 9 10 12 14 13 16 16 12 11 11 10 8 8 7 7 6 3 3 2 2 3 3 4 6 2 1 3 2 1 1 2 3 4 5 3 3 2 2
10 12 12 14 17 10 9 12 12 9 4 16 13 12 14 10 18 16 14 13 11 12 9 9 8 9 6 4 3 2 2 4 3 3 2 2 1 3 3 3 1 2 2 4 4 4 2 2 2
11 7 13 13 18 13 12 3 4 12 14 16 17 16 11 16 18 16 14 13 12 14 12 10 9 8 6 6 3 1 1 2 1 3 4 3 4 5 5 3 2 3 3 4 4 4 5 3 2
7 5 5 4 17 10 12 7 7 20 15 17 19 18 14 18 16 14 13 9 15 14 11 12 10 8 7 7 4 5 4 3 2 3 2 3 4 2 1 0 4 4 2 3 3 2 1 2 4
8 7 6 8 5 5 10 6 10 17 13 10 13 19 17 21 21 19 17 12 14 16 12 11 11 8 7 7 7 5 4 3 2 2 3 3 4 3 3 5 6 4 3 3 3 4 3 1 1
6 4 5 6 1 2 8 8 6 16 20 16 14 17 20 23 23 22 21 18 17 15 14 11 9 8 8 8 7 7 6 5 3 2 2 2 2 2 6 5 5 2 2 2 2 2 3 2 2
4 4 2 4 2 8 8 7 10 20 18 21 14 14 11 24 24 23 23 20 19 17 17 13 12 8 8 8 7 7 6 6 5 3 2 2 1 2 3 4 4 1 2 3 2 2 3 3 0
8 10 7 7 5 10 12 8 7 22 22 20 16 16 15 10 20 23 21 19 22 20 19 18 15 9 8 8 8 7 7 3 3 3 4 3 2 2 3 3 4 3 3 3 4 2 2 3 1
11 6 10 3 4 3 5 6 7 13 15 17 17 13 16 16 12 17 21 20 21 19 20 20 17 13 10 8 7 7 6 5 5 5 4 2 3 2 2 3 1 2 3 3 2 2 2 0 1
12 8 3 4 2 6 6 2 3 6 10 10 13 14 14 14 17 19 17 18 17 18 18 18 17 17 12 10 8 6 7 7 6 5 5 4 3 2 2 2 2 3 4 4 3 3 3 2 2
2 5 4 7 7 6 2 3 4 10 10 11 9 15 15 16 14 16 18 17 18 17 17 17 16 16 12 11 9 7 7 7 7 6 5 5 4 4 4 4 4 5 5 5 4 4 5 5 5
9 10 10 7 6 2 6 7 12 11 9 10 8 8 8 11 18 21 23 15 16 18 17 17 16 15 13 10 10 8 8 6 6 6 6 5 5 4 5 4 4 4 5 6 5 6 4 5 5
Wind_Direction
185 199 185 309 8 201 103 92 127 127 121 182 138 198 102 131 93 124 142 124 121 118 120 114 116 115 115 115 114 111 114 109 102 99 99 97 100 100 97 96 90 89 90 89 93 91 86 85 79
214 211 174 283 219 80 78 84 86 115 139 158 133 106 71 72 89 114 120 127 127 126 118 119 121 118 119 122 123 122 116 112 102 99 100 104 106 102 102 99 98 95 91 94 91 88 88 76 79
229 216 144 188 137 99 96 108 80 112 142 143 123 114 86 119 120 105 128 125 114 114 118 130 126 126 127 129 128 123 121 115 113 109 112 111 111 113 104 100 99 103 110 103 93 87 87 78 60
227 20 306 149 108 105 102 94 98 100 99 110 109 70 71 107 105 119 109 111 110 120 126 135 134 127 126 125 122 121 123 122 122 120 115 116 110 104 101 104 106 107 101 93 95 88 78 86 73
87 67 312 64 111 119 126 113 108 103 93 93 105 106 94 97 113 115 117 117 118 118 126 133 136 132 126 123 120 125 127 125 119 115 116 111 106 105 109 108 112 113 110 107 90 75 62 52 18
26 33 17 87 78 52 99 100 99 98 99 103 108 111 112 133 136 140 133 126 122 124 124 131 132 130 134 135 133 130 131 130 125 122 115 114 119 131 133 137 144 156 162 143 156 207 172 266 279
87 328 294 80 84 69 86 108 108 116 124 112 122 123 138 144 145 142 144 132 123 127 123 130 132 141 138 139 138 138 133 129 126 121 125 135 147 146 164 192 210 217 245 245 238 254 227 251 266
140 138 313 3 338 99 98 109 127 128 121 128 129 139 145 154 133 134 130 131 126 132 137 137 135 130 132 142 148 146 140 140 137 134 148 162 179 181 99 338 269 253 257 265 274 269 278 273 270
119 111 111 188 182 82 48 121 118 121 134 154 143 132 143 130 134 126 126 133 131 142 145 147 154 155 148 139 155 152 153 155 154 155 183 199 207 179 214 248 251 256 260 255 260 265 264 265 275
125 281 153 177 195 111 116 88 42 121 135 117 126 120 129 132 133 139 135 136 137 140 154 160 162 166 154 160 162 165 169 166 168 182 196 201 206 210 236 234 252 242 261 251 251 251 253 271 243
174 222 104 105 78 107 103 100 143 101 137 143 136 143 146 138 138 142 153 154 161 158 160 164 156 147 159 142 170 178 178 174 188 193 194 208 177 202 202 234 243 249 269 259 270 249 233 265 253
90 109 117 124 111 108 92 122 182 106 207 130 133 144 139 142 154 154 147 148 160 166 176 157 133 127 160 167 179 186 180 190 197 203 192 177 200 208 209 193 236 242 267 219 264 257 265 315 308
97 105 108 118 128 139 137 145 159 154 123 126 134 146 147 144 145 141 140 139 147 138 137 145 146 140 154 164 164 168 209 197 196 184 192 181 186 190 201 206 296 297 301 343 1 1 336 342 324
90 134 126 124 115 112 104 106 96 235 171 131 142 150 162 153 154 135 126 128 129 130 144 151 164 141 141 128 88 313 57 182 172 171 196 204 176 199 169 169 274 340 332 344 333 290 299 308 296
180 119 118 104 120 121 116 126 116 130 128 140 150 162 172 168 152 152 147 143 146 160 147 162 149 141 155 159 166 239 283 327 78 194 199 194 188 185 161 176 208 257 275 313 334 321 311 295 287
152 127 116 137 115 145 116 140 142 142 149 159 168 175 175 169 151 156 149 150 151 161 146 145 152 164 157 160 178 201 266 289 302 292 236 223 208 193 161 167 221 252 265 263 288 286 300 304 312
164 189 129 135 150 138 106 150 157 167 168 174 181 175 160 159 149 153 147 152 158 154 139 152 161 159 166 166 176 219 245 259 254 273 264 349 92 130 133 192 265 300 300 282 274 282 238 298 294
190 214 149 148 194 144 132 155 165 176 173 181 178 159 162 172 160 150 155 148 150 147 156 169 165 160 153 163 182 212 231 244 292 262 146 192 174 143 150 344 297 294 291 295 296 277 288 244 263
203 178 116 254 184 136 177 155 172 177 167 171 165 160 166 163 158 155 161 159 150 157 165 172 158 154 131 134 151 197 216 232 256 252 237 206 346 51 112 223 267 286 264 273 272 252 252 317 331
240 158 183 218 169 122 172 161 165 75 276 174 173 175 174 158 156 162 166 173 177 167 172 162 151 145 158 158 172 162 180 232 220 241 273 165 78 195 212 168 170 34 0 344 357 358 5 299 24
241 189 201 175 178 166 132 108 98 190 214 202 172 175 181 157 155 166 171 179 165 168 162 162 161 160 159 174 156 172 319 297 66 42 98 93 87 84 80 67 59 28 42 3 342 12 15 344 330
243 261 285 147 156 180 177 193 190 200 239 199 174 178 173 156 156 149 167 160 157 167 163 158 161 163 174 176 171 165 180 189 243 127 128 116 117 148 161 204 74 79 59 22 10 1 352 32 306
217 255 216 259 209 187 192 109 223 190 238 188 181 178 174 166 164 162 166 179 161 161 162 157 163 169 164 144 137 131 123 114 87 94 97 36 356 260 217 119 99 70 40 1 24 354 335 283 217
216 233 298 246 160 9 227 156 177 181 201 202 164 174 181 170 171 172 172 177 166 162 156 154 144 148 150 138 146 136 133 133 101 65 32 19 333 34 103 103 92 87 8 336 308 312 316 297 285
181 131 294 355 341 228 252 260 201 195 188 189 181 175 180 178 172 176 176 176 167 162 160 152 144 158 160 160 164 165 156 146 157 184 169 157 73 96 138 119 115 142 250 274 288 303 312 305 122
207 159 157 202 195 240 246 243 230 187 189 189 180 195 193 162 180 176 175 173 167 165 161 157 154 156 169 174 172 148 148 153 200 172 155 143 164 174 174 151 158 207 255 265 254 253 288 285 178
228 174 204 211 251 324 253 165 19 168 185 184 189 188 202 203 173 164 179 169 168 165 164 160 160 158 168 181 162 157 166 172 162 154 143 156 118 157 131 149 167 280 303 297 262 255 277 110 123
158 167 242 347 223 285 267 311 224 136 137 147 190 190 206 197 191 172 161 162 169 168 164 161 164 165 169 163 167 176 186 189 180 166 176 193 220 213 233 227 238 276 295 301 278 264 260 276 262
141 176 180 171 153 194 265 258 215 138 149 156 167 163 198 184 163 124 148 185 170 163 163 162 164 165 164 166 169 182 195 192 183 173 193 204 212 215 218 221 237 251 269 278 273 243 243 255 246
196 185 169 129 276 223 156 249 161 158 147 122 114 129 117 117 165 173 175 177 177 166 164 167 167 164 174 166 168 171 172 175 188 188 194 202 201 223 223 233 249 262 269 269 258 244 239 229 248